Time,TemperatureF,DewpointF,PressureIn,WindDirection,WindDirectionDegrees,WindSpeedMPH,WindSpeedGustMPH,Humidity,HourlyPrecipIn,Conditions,Clouds,dailyrainin,SoftwareType,DateUTC
2013-03-12 00:02:00,42.0,30.0,29.99,South,178,0.0,0.0,63,0.00,,,0.02,,2013-03-12 05:02:00,
2013-03-12 00:12:00,42.0,30.0,29.99,South,178,0.0,0.0,63,0.00,,,0.02,,2013-03-12 05:12:00,
2013-03-12 00:22:00,41.0,31.0,30.00,South,178,0.0,1.0,66,0.00,,,0.02,,2013-03-12 05:22:00,
2013-03-12 00:32:00,40.0,30.0,30.00,South,178,0.0,0.0,68,0.00,,,0.02,,2013-03-12 05:32:00,
2013-03-12 00:42:00,40.0,30.0,30.00,South,178,0.0,0.0,68,0.00,,,0.02,,2013-03-12 05:42:00,
2013-03-12 00:52:00,40.0,31.0,30.00,South,178,0.0,0.0,70,0.00,,,0.02,,2013-03-12 05:52:00,
2013-03-12 01:02:00,39.0,31.0,30.00,South,178,0.0,0.0,73,0.00,,,0.02,,2013-03-12 06:02:00,
2013-03-12 01:12:00,39.0,31.0,30.00,South,178,0.0,0.0,73,0.00,,,0.02,,2013-03-12 06:12:00,
2013-03-12 01:22:00,38.0,31.0,30.00,South,178,0.0,0.0,77,0.00,,,0.02,,2013-03-12 06:22:00,
2013-03-12 01:32:00,38.0,32.0,30.03,NNW,346,0.0,5.0,78,0.00,,,0.02,,2013-03-12 06:32:00,
2013-03-12 01:42:00,38.0,32.0,30.03,NNW,346,0.0,5.0,78,0.00,,,0.02,,2013-03-12 06:42:00,
2013-03-12 01:52:00,39.0,31.0,30.02,NNW,346,0.0,0.0,73,0.00,,,0.02,,2013-03-12 06:52:00,
2013-03-12 02:02:00,39.0,31.0,30.02,NNW,346,0.0,0.0,74,0.00,,,0.02,,2013-03-12 07:02:00,
2013-03-12 02:12:00,39.0,31.0,30.02,NNW,346,0.0,0.0,74,0.00,,,0.02,,2013-03-12 07:12:00,
2013-03-12 02:22:00,39.0,32.0,30.04,NNW,346,0.0,0.0,75,0.00,,,0.02,,2013-03-12 07:22:00,
2013-03-12 02:32:00,39.0,32.0,30.05,NNW,346,0.0,0.0,75,0.00,,,0.02,,2013-03-12 07:32:00,
2013-03-12 02:42:00,39.0,32.0,30.05,NNW,346,0.0,0.0,75,0.00,,,0.02,,2013-03-12 07:42:00,
2013-03-12 02:52:00,39.0,32.0,30.06,NNW,346,0.0,0.0,75,0.00,,,0.02,,2013-03-12 07:52:00,
2013-03-12 03:02:00,39.0,32.0,30.07,NNW,346,0.0,0.0,75,0.00,,,0.02,,2013-03-12 08:02:00,
2013-03-12 03:13:00,39.0,32.0,30.07,NNW,346,0.0,0.0,75,0.00,,,0.02,,2013-03-12 08:13:00,
2013-03-12 03:22:00,38.0,30.0,30.06,NNW,346,0.0,0.0,74,0.00,,,0.02,,2013-03-12 08:22:00,
2013-03-12 03:42:00,38.0,30.0,30.08,NNW,346,0.0,0.0,72,0.00,,,0.02,,2013-03-12 08:42:00,
2013-03-12 03:52:00,38.0,30.0,30.08,NNW,346,0.0,0.0,72,0.00,,,0.02,,2013-03-12 08:52:00,
2013-03-12 04:03:00,38.0,29.0,30.08,NNW,346,0.0,0.0,71,0.00,,,0.02,,2013-03-12 09:03:00,
2013-03-12 04:12:00,38.0,29.0,30.08,NNW,346,0.0,0.0,71,0.00,,,0.02,,2013-03-12 09:12:00,
2013-03-12 04:22:00,37.0,29.0,30.09,NNW,346,0.0,0.0,73,0.00,,,0.02,,2013-03-12 09:22:00,
2013-03-12 04:32:00,36.0,29.0,30.09,NNW,346,0.0,0.0,76,0.00,,,0.02,,2013-03-12 09:32:00,
2013-03-12 04:42:00,36.0,29.0,30.09,NNW,346,0.0,0.0,76,0.00,,,0.02,,2013-03-12 09:42:00,
2013-03-12 04:52:00,36.0,29.0,30.09,NNW,346,0.0,0.0,75,0.00,,,0.02,,2013-03-12 09:52:00,
2013-03-12 05:02:00,35.0,29.0,30.10,NNW,347,0.0,0.0,77,0.00,,,0.02,,2013-03-12 10:02:00,
2013-03-12 05:12:00,35.0,29.0,30.10,NNW,347,0.0,0.0,77,0.00,,,0.02,,2013-03-12 10:12:00,
2013-03-12 05:22:00,34.0,28.0,30.09,NNW,346,0.0,0.0,80,0.00,,,0.02,,2013-03-12 10:22:00,
2013-03-12 05:32:00,35.0,29.0,30.10,NNW,347,0.0,0.0,80,0.00,,,0.02,,2013-03-12 10:32:00,
2013-03-12 05:42:00,35.0,29.0,30.10,NNW,347,0.0,0.0,80,0.00,,,0.02,,2013-03-12 10:42:00,
2013-03-12 05:52:00,35.0,30.0,30.10,NNW,346,0.0,0.0,81,0.00,,,0.02,,2013-03-12 10:52:00,
2013-03-12 06:02:00,35.0,29.0,30.11,NNW,346,0.0,0.0,80,0.00,,,0.02,,2013-03-12 11:02:00,
2013-03-12 06:12:00,35.0,29.0,30.11,NNW,346,0.0,0.0,80,0.00,,,0.02,,2013-03-12 11:12:00,
2013-03-12 06:22:00,35.0,29.0,30.12,NNW,346,0.0,0.0,79,0.00,,,0.02,,2013-03-12 11:22:00,
2013-03-12 06:32:00,35.0,29.0,30.13,NNW,347,0.0,0.0,80,0.00,,,0.02,,2013-03-12 11:32:00,
2013-03-12 06:42:00,35.0,29.0,30.13,NNW,347,0.0,0.0,80,0.00,,,0.02,,2013-03-12 11:42:00,
2013-03-12 06:52:00,35.0,30.0,30.14,NNW,346,0.0,0.0,81,0.00,,,0.02,,2013-03-12 11:52:00,
2013-03-12 07:02:00,35.0,30.0,30.14,NNW,347,0.0,0.0,81,0.00,,,0.02,,2013-03-12 12:02:00,
2013-03-12 07:12:00,35.0,30.0,30.14,NNW,347,0.0,0.0,81,0.00,,,0.02,,2013-03-12 12:12:00,
2013-03-12 07:22:00,35.0,30.0,30.14,NNW,346,0.0,0.0,83,0.00,,,0.02,,2013-03-12 12:22:00,
2013-03-12 07:32:00,34.0,29.0,30.15,NNW,347,0.0,0.0,83,0.00,,,0.02,,2013-03-12 12:32:00,
2013-03-12 07:42:00,34.0,29.0,30.15,NNW,347,0.0,0.0,83,0.00,,,0.02,,2013-03-12 12:42:00,
2013-03-12 07:52:00,34.0,29.0,30.16,NNW,347,0.0,0.0,83,0.00,,,0.02,,2013-03-12 12:52:00,
2013-03-12 08:02:00,34.0,29.0,30.16,NNW,347,0.0,0.0,83,0.00,,,0.02,,2013-03-12 13:02:00,
2013-03-12 08:12:00,34.0,29.0,30.16,NNW,347,0.0,0.0,83,0.00,,,0.02,,2013-03-12 13:12:00,
2013-03-12 08:22:00,34.0,29.0,30.17,NNW,347,0.0,0.0,82,0.00,,,0.02,,2013-03-12 13:22:00,
2013-03-12 08:32:00,34.0,29.0,30.17,NNW,346,0.0,0.0,83,0.00,,,0.02,,2013-03-12 13:32:00,
2013-03-12 08:42:00,34.0,29.0,30.17,NNW,346,0.0,0.0,83,0.00,,,0.02,,2013-03-12 13:42:00,
2013-03-12 08:52:00,33.0,29.0,30.17,NNW,347,0.0,0.0,84,0.00,,,0.02,,2013-03-12 13:52:00,
2013-03-12 09:02:00,33.0,29.0,30.17,NNW,346,0.0,0.0,84,0.00,,,0.02,,2013-03-12 14:02:00,
2013-03-12 09:12:00,33.0,29.0,30.17,NNW,346,0.0,0.0,84,0.00,,,0.02,,2013-03-12 14:12:00,
2013-03-12 09:22:00,34.0,30.0,30.18,NNW,346,0.0,0.0,85,0.00,,,0.02,,2013-03-12 14:22:00,
2013-03-12 09:32:00,38.0,32.0,30.20,NNW,347,0.0,0.0,78,0.00,,,0.02,,2013-03-12 14:32:00,
2013-03-12 09:42:00,38.0,32.0,30.20,NNW,347,0.0,0.0,78,0.00,,,0.02,,2013-03-12 14:42:00,
2013-03-12 09:52:00,39.0,32.0,30.20,NNW,346,0.0,0.0,75,0.00,,,0.02,,2013-03-12 14:52:00,
2013-03-12 10:02:00,40.0,32.0,30.21,NW,325,0.0,1.0,73,0.00,,,0.02,,2013-03-12 15:02:00,
2013-03-12 10:12:00,40.0,32.0,30.21,NW,325,0.0,1.0,73,0.00,,,0.02,,2013-03-12 15:12:00,
2013-03-12 10:22:00,41.0,32.0,30.22,NW,325,3.0,10.0,71,0.00,,,0.02,,2013-03-12 15:22:00,
2013-03-12 10:32:00,43.0,32.0,30.22,NNE,13,6.0,12.0,65,0.00,,,0.02,,2013-03-12 15:32:00,
2013-03-12 10:42:00,43.0,32.0,30.22,NNE,13,6.0,12.0,65,0.00,,,0.02,,2013-03-12 15:42:00,
2013-03-12 10:52:00,43.0,27.0,30.24,NNW,329,8.0,17.0,52,0.00,,,0.02,,2013-03-12 15:52:00,
2013-03-12 11:02:00,44.0,28.0,30.24,NW,317,6.0,18.0,52,0.00,,,0.02,,2013-03-12 16:02:00,
2013-03-12 11:12:00,44.0,28.0,30.24,NW,317,6.0,18.0,52,0.00,,,0.02,,2013-03-12 16:12:00,
2013-03-12 11:22:00,44.0,24.0,30.25,NNE,28,10.0,16.0,45,0.00,,,0.02,,2013-03-12 16:22:00,
2013-03-12 11:33:00,45.0,27.0,30.25,NW,306,4.0,16.0,48,0.00,,,0.02,,2013-03-12 16:33:00,
2013-03-12 11:43:00,45.0,27.0,30.25,NW,306,4.0,16.0,48,0.00,,,0.02,,2013-03-12 16:43:00,
2013-03-12 11:52:00,45.0,25.0,30.26,NNE,12,6.0,17.0,45,0.00,,,0.02,,2013-03-12 16:52:00,
2013-03-12 12:03:00,44.0,25.0,30.26,NNW,342,7.0,20.0,47,0.00,,,0.02,,2013-03-12 17:03:00,
2013-03-12 12:13:00,44.0,25.0,30.26,NNW,342,7.0,20.0,47,0.00,,,0.02,,2013-03-12 17:13:00,
2013-03-12 12:22:00,45.0,26.0,30.27,NNW,329,9.0,17.0,47,0.00,,,0.02,,2013-03-12 17:22:00,
2013-03-12 12:33:00,45.0,27.0,30.27,NW,315,10.0,15.0,48,0.00,,,0.02,,2013-03-12 17:33:00,
2013-03-12 12:43:00,45.0,27.0,30.27,NW,315,10.0,15.0,48,0.00,,,0.02,,2013-03-12 17:43:00,
2013-03-12 12:53:00,45.0,25.0,30.27,WNW,288,8.0,18.0,46,0.00,,,0.02,,2013-03-12 17:53:00,
2013-03-12 13:02:00,46.0,27.0,30.27,NNE,17,6.0,15.0,47,0.00,,,0.02,,2013-03-12 18:02:00,
2013-03-12 13:13:00,46.0,28.0,30.27,NW,320,7.0,18.0,50,0.00,,,0.02,,2013-03-12 18:13:00,
2013-03-12 13:23:00,46.0,28.0,30.27,NW,320,7.0,18.0,50,0.00,,,0.02,,2013-03-12 18:23:00,
2013-03-12 13:33:00,46.0,27.0,30.27,NNW,344,7.0,16.0,47,0.00,,,0.02,,2013-03-12 18:33:00,
2013-03-12 13:42:00,46.0,27.0,30.27,NNW,344,7.0,16.0,47,0.00,,,0.02,,2013-03-12 18:42:00,
2013-03-12 13:53:00,47.0,27.0,30.27,NNW,333,7.0,16.0,46,0.00,,,0.01,,2013-03-12 18:53:00,
2013-03-12 14:03:00,46.0,26.0,30.26,North,351,11.0,17.0,46,0.00,,,0.01,,2013-03-12 19:03:00,
2013-03-12 14:13:00,46.0,26.0,30.26,North,351,11.0,17.0,46,0.00,,,0.01,,2013-03-12 19:13:00,
2013-03-12 14:22:00,46.0,28.0,30.25,WNW,296,7.0,17.0,50,0.00,,,0.01,,2013-03-12 19:22:00,
2013-03-12 14:33:00,48.0,29.0,30.25,NNW,328,11.0,16.0,48,0.00,,,0.01,,2013-03-12 19:33:00,
2013-03-12 14:43:00,48.0,29.0,30.25,NNW,328,11.0,16.0,48,0.00,,,0.01,,2013-03-12 19:43:00,
2013-03-12 14:53:00,48.0,28.0,30.27,NW,315,11.0,17.0,46,0.00,,,0.01,,2013-03-12 19:53:00,
2013-03-12 15:02:00,47.0,26.0,30.27,NW,308,11.0,20.0,44,0.00,,,0.01,,2013-03-12 20:02:00,
2013-03-12 15:12:00,47.0,26.0,30.27,NW,308,11.0,20.0,44,0.00,,,0.01,,2013-03-12 20:12:00,
2013-03-12 15:22:00,48.0,28.0,30.26,NW,323,9.0,16.0,45,0.00,,,0.01,,2013-03-12 20:22:00,
2013-03-12 15:32:00,48.0,27.0,30.26,NNW,333,10.0,20.0,44,0.00,,,0.01,,2013-03-12 20:32:00,
2013-03-12 15:42:00,48.0,27.0,30.26,NNW,333,10.0,20.0,44,0.00,,,0.01,,2013-03-12 20:42:00,
2013-03-12 15:52:00,48.0,27.0,30.25,NNW,329,8.0,19.0,43,0.00,,,0.00,,2013-03-12 20:52:00,
2013-03-12 16:02:00,49.0,26.0,30.25,WNW,290,8.0,15.0,41,0.00,,,0.00,,2013-03-12 21:02:00,
2013-03-12 16:12:00,49.0,26.0,30.25,WNW,290,8.0,15.0,41,0.00,,,0.00,,2013-03-12 21:12:00,
2013-03-12 16:22:00,49.0,26.0,30.25,NW,325,8.0,22.0,40,0.00,,,0.00,,2013-03-12 21:22:00,
2013-03-12 16:32:00,48.0,24.0,30.25,WNW,303,12.0,17.0,39,0.00,,,0.00,,2013-03-12 21:32:00,
2013-03-12 16:43:00,48.0,24.0,30.25,WNW,303,12.0,17.0,39,0.00,,,0.00,,2013-03-12 21:43:00,
2013-03-12 16:52:00,49.0,26.0,30.25,NNW,341,9.0,19.0,40,0.00,,,0.00,,2013-03-12 21:52:00,
2013-03-12 17:02:00,49.0,25.0,30.25,NNW,344,8.0,19.0,39,0.00,,,0.00,,2013-03-12 22:02:00,
2013-03-12 17:12:00,49.0,25.0,30.25,NNW,344,8.0,19.0,39,0.00,,,0.00,,2013-03-12 22:12:00,
2013-03-12 17:22:00,48.0,21.0,30.25,NNW,328,12.0,20.0,34,0.00,,,0.00,,2013-03-12 22:22:00,
2013-03-12 17:33:00,48.0,23.0,30.25,NNW,338,8.0,18.0,37,0.00,,,0.00,,2013-03-12 22:33:00,
2013-03-12 17:42:00,48.0,23.0,30.25,NNW,338,8.0,18.0,37,0.00,,,0.00,,2013-03-12 22:42:00,
2013-03-12 17:52:00,48.0,22.0,30.25,NNE,24,9.0,18.0,35,0.00,,,0.00,,2013-03-12 22:52:00,
2013-03-12 18:02:00,49.0,23.0,30.24,North,360,9.0,18.0,35,0.00,,,0.00,,2013-03-12 23:02:00,
2013-03-12 18:12:00,49.0,23.0,30.24,North,360,9.0,18.0,35,0.00,,,0.00,,2013-03-12 23:12:00,
2013-03-12 18:22:00,49.0,23.0,30.24,NW,306,9.0,14.0,35,0.00,,,0.00,,2013-03-12 23:22:00,
2013-03-12 18:34:00,48.0,22.0,30.25,NNW,345,6.0,14.0,36,0.00,,,0.00,,2013-03-12 23:34:00,
2013-03-12 18:43:00,48.0,22.0,30.25,NNW,345,6.0,14.0,36,0.00,,,0.00,,2013-03-12 23:43:00,
2013-03-12 18:52:00,48.0,22.0,30.25,NW,324,3.0,10.0,36,0.00,,,0.00,,2013-03-12 23:52:00,
2013-03-12 19:02:00,47.0,22.0,30.25,North,350,4.0,12.0,37,0.00,,,0.00,,2013-03-13 00:02:00,
2013-03-12 19:12:00,47.0,22.0,30.25,North,350,4.0,12.0,37,0.00,,,0.00,,2013-03-13 00:12:00,
2013-03-12 19:23:00,46.0,22.0,30.25,NW,326,4.0,10.0,38,0.00,,,0.00,,2013-03-13 00:23:00,
2013-03-12 19:33:00,44.0,19.0,30.25,NNE,20,4.0,12.0,37,0.00,,,0.00,,2013-03-13 00:33:00,
2013-03-12 19:42:00,44.0,19.0,30.25,NNE,20,4.0,12.0,37,0.00,,,0.00,,2013-03-13 00:42:00,
2013-03-12 19:52:00,44.0,21.0,30.26,NNW,341,3.0,9.0,39,0.00,,,0.00,,2013-03-13 00:52:00,
2013-03-12 20:03:00,42.0,19.0,30.26,NNE,13,3.0,5.0,39,0.00,,,0.00,,2013-03-13 01:03:00,
2013-03-12 20:12:00,42.0,19.0,30.26,NNE,13,3.0,5.0,39,0.00,,,0.00,,2013-03-13 01:12:00,
2013-03-12 20:22:00,41.0,20.0,30.27,NNW,344,2.0,6.0,42,0.00,,,0.00,,2013-03-13 01:22:00,
2013-03-12 20:32:00,40.0,19.0,30.27,NNW,348,0.0,2.0,43,0.00,,,0.00,,2013-03-13 01:32:00,
2013-03-12 20:42:00,40.0,19.0,30.27,NNW,348,0.0,2.0,43,0.00,,,0.00,,2013-03-13 01:42:00,
2013-03-12 20:52:00,39.0,21.0,30.28,NNW,348,0.0,0.0,49,0.00,,,0.00,,2013-03-13 01:52:00,
2013-03-12 21:02:00,36.0,21.0,30.29,NNW,348,0.0,0.0,53,0.00,,,0.00,,2013-03-13 02:02:00,
2013-03-12 21:12:00,36.0,21.0,30.29,NNW,348,0.0,0.0,53,0.00,,,0.00,,2013-03-13 02:12:00,
2013-03-12 21:22:00,35.0,20.0,30.29,NNW,348,0.0,0.0,54,0.00,,,0.00,,2013-03-13 02:22:00,
2013-03-12 21:32:00,34.0,20.0,30.30,NNW,348,0.0,0.0,57,0.00,,,0.00,,2013-03-13 02:32:00,
2013-03-12 21:43:00,34.0,20.0,30.30,NNW,348,0.0,0.0,57,0.00,,,0.00,,2013-03-13 02:43:00,
2013-03-12 21:52:00,32.0,20.0,30.30,NNW,348,0.0,0.0,61,0.00,,,0.00,,2013-03-13 02:52:00,
2013-03-12 22:02:00,31.0,21.0,30.30,NNW,348,0.0,0.0,66,0.00,,,0.00,,2013-03-13 03:02:00,
2013-03-12 22:12:00,31.0,21.0,30.30,NNW,348,0.0,0.0,66,0.00,,,0.00,,2013-03-13 03:12:00,
2013-03-12 22:22:00,30.0,21.0,30.31,NNW,348,0.0,0.0,69,0.00,,,0.00,,2013-03-13 03:22:00,
2013-03-12 22:32:00,29.0,23.0,30.32,NNW,348,0.0,0.0,77,0.00,,,0.00,,2013-03-13 03:32:00,
2013-03-12 22:42:00,29.0,23.0,30.32,NNW,348,0.0,0.0,77,0.00,,,0.00,,2013-03-13 03:42:00,
2013-03-12 22:52:00,28.0,23.0,30.32,NNW,348,0.0,0.0,80,0.00,,,0.00,,2013-03-13 03:52:00,
2013-03-12 23:03:00,28.0,23.0,30.33,NNW,348,0.0,0.0,82,0.00,,,0.00,,2013-03-13 04:03:00,
2013-03-12 23:13:00,28.0,23.0,30.33,NNW,348,0.0,0.0,82,0.00,,,0.00,,2013-03-13 04:13:00,
2013-03-12 23:22:00,27.0,22.0,30.34,NNW,348,0.0,0.0,81,0.00,,,0.00,,2013-03-13 04:22:00,
2013-03-12 23:32:00,27.0,22.0,30.32,NNW,348,0.0,0.0,81,0.00,,,0.00,,2013-03-13 04:32:00,
2013-03-12 23:42:00,27.0,22.0,30.32,NNW,348,0.0,0.0,81,0.00,,,0.00,,2013-03-13 04:42:00,
2013-03-12 23:52:00,27.0,22.0,30.32,NNW,348,0.0,0.0,81,0.00,,,0.00,,2013-03-13 04:52:00,